Погода в Христофоровке

Россия / Сахалинская область     46°52′04″N   142°45′12″E
темп.,
°C
ветер,
м/с
пор.,
м/с
влажн.,
%
обл.,
%
осадки,
мм/ч
давл.,
гПа
погр.,
м
26 февраля, пт
пт2623:00−15сз129220 0.0 101671
02:00−15зсз23941 0.0 101789
05:00−13зюз249019 0.0 1015131
08:00−12ссз359599 0.5 1015212
11:00−9с358096 0.6 1015424
14:00−6с4576100 0.0 1016835
17:00−6с3576100 0.1 1016671
20:00−10с2386100 0.0 101873
27 февраля, сб
сб2723:00−11ссв1290100 0.0 102083
02:00−12с229299 0.1 102180
05:00−14ссз349074 0.1 102295
08:00−15ссз23887 0.0 102563
11:00−10ссз24793 0.0 1027253
14:00−6сз126810 0.0 1028843
17:00−6сз687554 0.1 1028974
20:00−11сз248524 0.0 1029131
28 февраля, вс
вс2823:00−13сз238513 0.0 102959
02:00−13ссз11829 0.0 102633
05:00−9ююз248354 0.0 1023141
08:00−4юз51483100 0.0 1021749
11:000юз81585100 0.1 10181002
14:00+2юз81683100 0.0 1015992
17:00+2зюз61479100 0.0 1014931
20:00+1зюз51679100 0.0 1014671
1 марта, пн
пн123:00+1з6157897 0.0 1015621
02:000з51377100 0.0 1017740
05:00−5сз41272100 0.1 1019575
08:00−6зсз51270100 0.1 1020635
11:00−6зсз8146483 0.1 10221131
14:00−5зсз711644 0.0 10221396
17:00−7сз7126546 0.0 10241178
20:00−11зсз487221 0.0 1026415
2 марта, вт
вт223:00−12ссз138051 0.0 1028110
02:00−13ссв2277100 0.0 102764
05:00−13св2383100 0.0 1027121
08:00−13всв2483100 0.0 1026202
11:00−12всв3678100 0.0 1024408
14:00−11св4783100 0.1 1020492
17:00−12ссв5889100 1.4 1017652
20:00−13с4892100 1.9 1016714